EST,Max TemperatureF,Mean TemperatureF,Min TemperatureF,Max Dew PointF,MeanDew PointF,Min DewpointF,Max Humidity, Mean Humidity, Min Humidity, Max Sea Level PressureIn, Mean Sea Level PressureIn, Min Sea Level PressureIn, Max VisibilityMiles, Mean VisibilityMiles, Min VisibilityMiles, Max Wind SpeedMPH, Mean Wind SpeedMPH, Max Gust SpeedMPH,PrecipitationIn, CloudCover, Events, WindDirDegrees
2012-12-1,59,46,32,46,39,30,100,78,59,30.20,30.11,30.01,10,8,2,13,6,21,0.00,2,,156
2012-12-2,59,54,48,54,50,43,100,86,59,30.10,30.01,29.95,10,7,0,13,7,17,0.06,8,Fog-Rain,228
2012-12-3,62,55,48,59,56,48,100,92,72,30.10,30.01,29.93,10,4,0,13,4,25,0.00,6,Fog-Rain,185
2012-12-4,62,50,37,55,43,32,100,78,58,30.19,30.06,29.94,10,10,5,14,8,24,0.23,5,Rain,266
2012-12-5,39,34,28,32,26,23,87,75,56,30.41,30.33,30.21,10,8,1,15,7,18,0.00,0,,39
2012-12-6,41,34,28,34,30,23,87,80,70,30.28,30.07,29.95,10,10,5,8,5,,0.00,1,,148
2012-12-7,46,40,35,43,40,34,100,93,81,29.97,29.92,29.85,10,5,2,8,1,,0.07,8,Rain,58
2012-12-8,42,38,33,43,38,32,100,95,87,30.11,29.94,29.81,10,6,1,13,4,,0.04,8,Rain,16
2012-12-9,44,38,33,45,37,32,100,96,87,30.12,29.90,29.68,10,5,0,17,10,24,0.08,8,Rain,111
2012-12-10,41,36,32,41,32,28,100,95,87,29.91,29.77,29.69,10,6,2,17,12,24,0.00,8,Snow,270
2012-12-11,32,30,28,32,25,21,100,80,64,30.18,30.04,29.91,10,9,3,14,7,17,0.00,4,Snow,238
2012-12-12,41,34,26,27,24,21,86,74,53,30.36,30.30,30.18,10,10,7,9,4,,0.00,0,,206
2012-12-13,44,37,30,28,26,23,80,69,49,30.36,30.29,30.17,10,10,10,9,5,16,0.00,0,,193
2012-12-14,48,38,28,32,28,23,93,72,50,30.25,30.19,30.12,10,10,7,6,2,,0.00,0,,191
2012-12-15,50,42,35,48,38,30,100,83,61,30.12,29.87,29.66,10,9,4,15,5,22,0.03,6,Rain,162
2012-12-16,50,44,39,50,43,36,100,89,76,29.73,29.67,29.61,10,8,4,13,8,18,0.05,8,Rain,244
2012-12-17,39,37,35,36,33,32,100,88,81,29.75,29.70,29.63,10,7,4,9,4,,0.00,8,Rain,311
2012-12-18,37,34,30,34,32,30,100,90,81,29.82,29.73,29.67,10,6,2,10,5,17,0.01,7,Rain,224
2012-12-19,41,38,35,36,34,32,93,84,70,30.07,29.97,29.72,10,7,4,15,6,22,0.00,7,,316
2012-12-20,50,41,32,46,37,30,100,91,70,29.96,29.42,29.12,10,6,2,31,15,40,0.83,8,Rain-Snow,150
2012-12-21,33,32,30,32,30,27,100,92,80,30.05,29.68,29.22,10,7,1,32,23,46,0.09,8,Rain-Snow,302
2012-12-22,30,27,23,28,23,19,93,84,74,30.19,30.11,30.01,10,10,10,17,11,23,0.00,5,,252
2012-12-23,33,26,19,28,23,18,93,86,75,30.01,29.96,29.90,10,9,4,8,2,,0.00,0,,31
2012-12-24,32,29,26,30,27,23,100,87,80,30.03,29.89,29.79,10,8,2,12,6,16,0.00,5,Snow,59
2012-12-25,33,27,21,27,24,19,93,80,65,30.27,30.19,30.04,10,10,7,16,6,20,0.00,4,,34
2012-12-26,30,28,26,27,24,21,93,82,69,30.18,29.95,29.82,10,7,1,18,14,28,0.00,8,Snow,25
2012-12-27,32,28,24,27,22,19,93,80,69,30.16,30.11,29.98,10,10,10,13,6,20,0.00,8,,321
2012-12-28,30,28,26,27,26,25,100,89,80,30.15,30.05,29.89,10,7,0,10,2,,0.01,8,Snow,129
2012-12-29,30,28,26,28,26,21,100,90,80,30.15,29.92,29.82,10,4,1,17,6,22,0.00,8,Snow,296
2012-12-30,28,22,17,21,18,14,93,79,64,30.37,30.28,30.16,10,9,5,17,10,22,0.00,3,,231
2012-12-31,33,30,26,30,25,19,93,81,64,30.19,30.06,30.00,10,8,0,16,9,25,0.01,4,Snow,242